Location: C.E.K. Mees Observatory
(42.7003°N, 77.4088°W)
Time: 00:46:57
(UTC-04:00)

Vanguard 2 - Visible Passes

Search period start: 21 October 2017 00:00
Search period end: 31 October 2017 00:00
Orbit: 554 x 2939 km, 32.9° (Epoch: 20 October)

Date Brightness Start Highest point End Pass type
(mag) Time Alt. Az. Time Alt. Az. Time Alt. Az.
21 Oct 11.7 07:01:48 10° SSW 07:14:14 26° SSE 07:23:59 10° ESE visible
22 Oct 12.0 05:15:22 10° SSE 05:21:57 13° SE 05:28:05 10° ESE visible
23 Oct 11.9 05:29:21 10° S 05:39:49 19° SE 05:49:06 10° ESE visible
24 Oct 11.7 05:44:56 10° SSW 05:57:41 25° SSE 06:08:40 10° E visible
25 Oct 12.0 04:01:42 10° SSE 04:05:30 11° SE 04:09:14 10° ESE visible
25 Oct 11.5 06:01:17 10° SSW 06:15:36 31° SSE 06:27:38 10° E visible
26 Oct 11.8 04:13:53 10° S 04:23:11 17° SE 04:32:10 10° ESE visible
26 Oct 11.3 06:18:08 10° SSW 06:33:32 38° SSE 06:46:14 10° E visible
27 Oct 11.7 04:28:56 10° S 04:40:54 23° SE 04:52:18 10° E visible
27 Oct 11.1 06:35:22 10° SW 06:51:32 44° SSE 07:04:39 10° E visible
28 Oct 11.4 04:45:00 10° SSW 04:58:37 29° SE 05:11:33 10° E visible
28 Oct 11.0 06:52:52 10° SW 07:09:35 49° SSE 07:22:54 10° E visible
29 Oct 11.8 03:00:07 10° SSE 03:06:37 13° SE 03:13:16 10° ESE visible
29 Oct 11.2 05:01:38 10° SSW 05:16:25 35° SSE 05:30:22 10° E visible
29 Oct 10.9 07:10:37 10° WSW 07:27:40 54° SSE 07:41:05 10° E visible
30 Oct 11.5 03:17:04 14° SSE 03:24:08 19° SE 03:34:35 10° E visible
30 Oct 11.1 05:18:41 10° SW 05:34:17 42° SSE 05:48:54 10° E visible
